Location: Bismarck
(46.7731°N, 100.8200°W)
Time: 19:21:14
(UTC-06:00)

ISS - Visible Passes

Search period start: 06 February 2016 00:00
Search period end: 16 February 2016 00:00
Orbit: 399 x 408 km, 51.6° (Epoch: 06 February)

Date Brightness Start Highest point End Pass type
(mag) Time Alt. Az. Time Alt. Az. Time Alt. Az.
06 Feb -2.9 19:30:20 10° W 19:33:31 52° NNW 19:34:17 40° NNE visible
07 Feb -3.3 18:37:40 10° WSW 18:40:55 76° NNW 18:43:56 12° ENE visible
07 Feb -1.3 20:14:41 10° WNW 20:16:34 26° NW 20:16:34 26° NW visible
08 Feb -2.4 19:21:55 10° W 19:24:59 38° N 19:26:10 27° NE visible
09 Feb -2.7 18:29:08 10° W 18:32:18 47° NNW 18:35:28 10° ENE visible
09 Feb -1.7 20:06:11 10° WNW 20:08:23 28° NNW 20:08:23 28° NNW visible
10 Feb -2.2 19:13:27 10° WNW 19:16:27 33° N 19:17:56 22° NE visible
10 Feb 0.0 20:50:09 10° WNW 20:50:35 13° WNW 20:50:35 13° WNW visible
11 Feb -2.2 19:57:32 10° WNW 20:00:08 36° NNW 20:00:08 36° NNW visible
12 Feb -2.3 19:04:52 10° WNW 19:07:53 34° N 19:09:42 19° ENE visible
12 Feb -0.5 20:41:22 10° WNW 20:42:21 18° WNW 20:42:21 18° WNW visible
13 Feb -3.1 19:48:45 10° WNW 19:51:56 55° NNE 19:51:56 55° NNE visible
14 Feb -2.7 18:56:06 10° WNW 18:59:13 41° NNE 19:01:35 15° E visible
14 Feb -1.1 20:32:35 10° WNW 20:34:14 26° W 20:34:14 26° W visible
15 Feb -3.5 19:39:53 10° WNW 19:43:09 88° S 19:43:56 49° ESE visible
